FW6626 Weather Reports


time (UTC)temp
C
wind
direction
speed
KPH
gust
KPH
rain 1hr
cm
rain 24hr
cm
rain mn
cm
humidity
%
barometer
mb
20260507033105 16 288 1.6 8.0 0.00 0.00 0.00 83 1017.6
20260507031600 16 301 4.8 8.0 0.00 0.00 0.00 82 1017.4
20260507030108 16 286 3.2 12.9 0.00 0.00 0.00 82 1017.3
20260507024609 16 236 0.0 6.4 0.00 0.00 0.00 82 1017.0
20260507023051 16 245 3.2 9.7 0.00 0.00 0.00 82 1017.0
20260507021555 16 248 4.8 12.9 0.00 0.00 0.00 82 1016.8
20260507020059 17 256 6.4 14.5 0.00 0.00 0.00 82 1016.7
20260507014559 17 238 9.7 17.7 0.00 0.00 0.00 79 1016.6
20260507013100 18 261 9.7 16.1 0.00 0.00 0.00 75 1016.7
20260507011552 18 261 11.3 20.9 0.00 0.00 0.00 74 1016.7
20260507010049 19 263 9.7 22.5 0.00 0.00 0.00 73 1016.5
20260507004552 18 360 11.3 22.5 0.00 0.00 0.00 72 1016.5
20260507003051 18 259 9.7 24.1 0.00 0.00 0.00 75 1016.4
20260507001556 19 253 9.7 20.9 0.00 0.00 0.00 75 1016.4
20260507000053 19 260 9.7 19.3 0.00 0.00 0.00 73 1016.2
20260506234558 19 262 9.7 22.5 0.00 0.00 0.00 74 1016.2
20260506233058 18 252 11.3 22.5 0.00 0.00 0.00 75 1016.2
20260506231555 18 360 11.3 22.5 0.00 0.00 0.00 75 1016.4
20260506230052 18 260 14.5 24.1 0.00 0.00 0.00 75 1016.6
20260506224559 18 252 14.5 27.4 0.00 0.03 0.00 74 1016.6
20260506223050 18 223 14.5 27.4 0.00 0.03 0.00 74 1016.8
20260506221551 19 242 14.5 27.4 0.00 0.03 0.00 73 1016.9
20260506220054 19 232 12.9 27.4 0.00 0.03 0.00 73 1017.1
20260506214550 19 261 14.5 29.0 0.00 0.03 0.00 74 1017.3
20260506213053 18 279 16.1 25.7 0.00 0.03 0.00 74 1017.3
20260506211552 18 265 14.5 27.4 0.00 0.03 0.00 73 1017.5
20260506210054 18 273 16.1 27.4 0.00 0.03 0.00 73 1017.5
20260506204549 19 360 11.3 27.4 0.00 0.03 0.00 72 1017.7
20260506203051 18 360 11.3 24.1 0.00 0.03 0.00 73 1017.8
20260506201555 19 273 9.7 20.9 0.00 0.03 0.00 72 1017.8
20260506200054 18 279 9.7 25.7 0.00 0.03 0.00 72 1018.0
20260506194554 18 275 11.3 24.1 0.00 0.03 0.00 71 1018.2
20260506193051 19 277 11.3 24.1 0.00 0.03 0.00 70 1018.4
20260506191551 18 248 11.3 22.5 0.00 0.03 0.00 71 1018.4
20260506190058 19 310 9.7 22.5 0.00 0.03 0.00 69 1018.4
20260506184555 18 275 11.3 19.3 0.00 0.03 0.00 68 1018.4
20260506183057 18 260 8.0 17.7 0.00 0.03 0.00 67 1018.7
20260506181558 19 295 8.0 17.7 0.00 0.03 0.00 68 1018.6
20260506180051 18 281 8.0 20.9 0.00 0.03 0.00 70 1018.8
20260506174557 18 268 6.4 19.3 0.00 0.03 0.00 70 1018.9
20260506173122 18 292 8.0 16.1 0.00 0.03 0.00 70 1018.9
20260506171601 18 252 8.0 19.3 0.00 0.03 0.00 70 1018.9
20260506170055 18 250 8.0 16.1 0.00 0.03 0.00 69 1018.9
20260506164557 18 269 6.4 16.1 0.00 0.05 0.00 69 1018.9
20260506163104 18 236 4.8 12.9 0.00 0.05 0.00 69 1018.9
20260506161617 18 239 3.2 12.9 0.00 0.05 0.00 69 1018.9
20260506160049 17 302 3.2 11.3 0.00 0.05 0.00 72 1018.9
20260506154552 17 297 3.2 11.3 0.00 0.05 0.00 71 1018.9
20260506153057 20 78 1.6 6.4 0.00 0.05 0.00 66 1018.9
20260506151549 19 98 3.2 6.4 0.00 0.05 0.00 67 1018.9
20260506150056 18 108 4.8 9.7 0.00 0.05 0.00 69 1018.9
20260506144551 17 78 3.2 6.4 0.00 0.05 0.00 71 1018.8
20260506143052 16 74 3.2 8.0 0.00 0.05 0.00 73 1018.7
20260506141554 15 76 4.8 11.3 0.00 0.05 0.00 74 1018.5
20260506140054 15 74 4.8 8.0 0.00 0.05 0.00 76 1018.5
20260506134555 13 53 3.2 8.0 0.00 0.05 0.00 79 1018.4
20260506133055 12 44 4.8 8.0 0.00 0.05 0.00 80 1018.3
20260506131602 12 51 4.8 8.0 0.00 0.05 0.00 83 1018.2
20260506130131 11 49 3.2 6.4 0.00 0.05 0.00 83 1018.1
20260506124559 12 49 4.8 8.0 0.00 0.05 0.00 83 1017.9
20260506123053 12 55 6.4 9.7 0.00 0.05 0.00 83 1017.9
20260506121556 11 49 3.2 8.0 0.00 0.05 0.00 83 1017.7
20260506120056 12 35 3.2 6.4 0.00 0.05 0.00 83 1017.9
20260506114557 12 30 3.2 6.4 0.00 0.08 0.00 83 1017.8
20260506113058 11 31 3.2 6.4 0.00 0.08 0.00 82 1017.8
20260506111607 12 40 3.2 8.0 0.00 0.08 0.00 83 1017.7
20260506110111 12 30 3.2 6.4 0.00 0.08 0.00 83 1017.8
20260506104600 12 38 3.2 8.0 0.00 0.08 0.00 82 1017.7
20260506103110 12 14 3.2 6.4 0.00 0.08 0.00 83 1017.7
20260506101608 12 17 4.8 8.0 0.00 0.08 0.00 82 1017.5
20260506100121 12 5 3.2 6.4 0.00 0.08 0.00 82 1017.5
20260506094553 12 5 1.6 6.4 0.00 0.08 0.00 81 1017.6
20260506093053 13 346 3.2 4.8 0.00 0.08 0.00 80 1017.5
20260506091604 13 346 1.6 4.8 0.00 0.08 0.00 81 1017.5
20260506090108 13 0 0.0 3.2 0.00 0.08 0.00 80 1017.7
20260506084620 13 346 0.0 1.6 0.00 0.08 0.00 80 1017.9
20260506083055 13 346 0.0 3.2 0.00 0.08 0.00 80 1018.0
20260506081554 13 346 1.6 6.4 0.00 0.08 0.00 80 1018.0
20260506073054 14 242 1.6 3.2 0.00 0.08 0.00 80 1018.3
20260506071559 13 0 0.0 3.2 0.00 0.08 0.00 80 1018.4
20260506061550 13 0 0.0 1.6 0.00 0.08 0.08 80 1018.1
20260506044653 15 0 0.0 4.8 0.00 0.08 0.08 77 1017.6
20260506043050 15 250 3.2 8.0 0.00 0.08 0.08 77 1017.5
20260506041601 15 240 1.6 8.0 0.00 0.08 0.08 77 1017.3
20260506040054 15 254 3.2 11.3 0.00 0.08 0.08 76 1017.2
20260506034623 15 254 4.8 11.3 0.00 0.08 0.08 77 1016.9